Zurück zum Katalog

STARLINK-33909

AktivKommunikationVLEO
NORAD 63804·PAYLOAD·🇺🇸 United States

Gestartet May 4, 2025 von Cape Canaveral Space Force Station

Loading…

Nächste Überflüge (nächste 24 Stunden)

TLE

AktuellSource: CelesTrak SupGP

Epoche: Sep 14, 2026, 22:25 UTC

1 63804C 25092A   26257.93451389 -.00031696  00000+0 -11478-2 0  2579
2 63804  43.0000 184.2214 0001439 264.9876  45.8659 15.27600522    19

Verfolge STARLINK-33909 in Echtzeit mit AllMySat

Download on the App Store